Tracking 17938 objects as of 20-February-2017
HD Live streaming from Space Station
objects crossing your sky now

AMC-6 (GE-6)

Track AMC-6 (GE-6) now!
AMC-6 (GE-6) is classified as:


NORAD ID: 26580
Int'l Code: 2000-067A
Perigee: 35,780.7 km
Apogee: 35,801.3 km
Inclination: 0.1 °
Period: 1,436.0 minutes
Semi major axis: 42161 km
RCS: 19.9526 m2 (large)
Launch date: October 21, 2000
Source: SOCIETE EUROPEENNE DES SATELLITES (SES)
Launch site: TYURATAM MISSILE AND SPACE COMPLEX (TTMTR)

Business (government and VSAT), media and entertainment; 28 Ku- and 24 C-band; CONUS, Canada, Mexico, Caribbean, Central America
Your satellite tracking list
Your tracking list is empty





NASA's NSSDC Master Catalog

Two Line Element Set (TLE):
1 26580U 00067A   17051.48489260 -.00000282  00000-0  00000+0 0  9991
2 26580   0.0573 292.4111 0002450  31.3963 294.3429  1.00281605 59857
Source of the keplerian elements: AFSPC